Regional Weather Roundup
Issued by NWS

Home | Current Version | Previous Version | Text Only | Print | Product List | Glossary Off
Versions: 1 2 3 4 5 6 7 8 9 10 11 12 13 14 15 16 17 18 19 20 21 22 23 24 25 26 27 28 29 30 31 32 33 34 35 36 37 38 39 40 41 42 43 44 45 46 47 48 49 50

720
ASUS43 KLMK 292102
RWRKY
KENTUCKY REGIONAL WEATHER ROUNDUP
NATIONAL WEATHER SERVICE LOUISVILLE KY
500 PM EDT FRI JUL 29 2016

NOTE "FAIR" INDICATES FEW OR NO CLOUDS BELOW 12,000 FEET
WITH NO SIGNIFICANT WEATHER AND/OR OBSTRUCTIONS TO VISIBILITY.

KYZ001>023-026-027-061>063-070>075-292200-
WESTERN AND SOUTH CENTRAL KENTUCKY

CITY           SKY/WX    TMP DP  RH WIND       PRES   REMARKS
PADUCAH        MOSUNNY   88  74  63 W7        29.90S HX  96
HENDERSON      PTSUNNY   72  66  83 NW9       29.91R
OWENSBORO      PTSUNNY   85  77  77 S8        29.89F HX  95
HOPKINSVILLE   NOT AVBL
BOWLING GREEN  SUNNY     85  74  69 S7        29.92F HX  92
GLASGOW        NOT AVBL
$$

KYZ024-025-028>034-038-045-046-053-292200-
NORTH CENTRAL KENTUCKY

CITY           SKY/WX    TMP DP  RH WIND       PRES   REMARKS
LOUISVILLE/SDF PTSUNNY   88  70  55 SW12      29.88F HX  93
LOUISVILLE/LOU MOSUNNY   87  70  56 S9        29.88F HX  92
FORT KNOX      CLOUDY    84  73  68 S8        29.89F HX  91
$$

KYZ035>037-039>044-047>052-055>060-089>105-292200-
NORTHEAST KENTUCKY

CITY           SKY/WX    TMP DP  RH WIND       PRES   REMARKS
LEXINGTON      MOSUNNY   84  73  69 SW7       29.92F HX  90
COVINGTON      PTSUNNY   85  71  63 SW7       29.89F HX  90
FRANKFORT      SUNNY     85  70  60 SW9       29.90F
$$

KYZ054-064>069-076>088-106>120-292200-
SOUTHEAST KENTUCKY

CITY           SKY/WX    TMP DP  RH WIND       PRES   REMARKS
JACKSON        LGT RAIN  74  71  91 CALM      29.97F
LONDON         CLOUDY    74  69  85 S6        29.98F
SOMERSET       MOSUNNY   73  70  88 SW5       29.97F
MIDDLESBORO    LGT RAIN  72  71  98 E3        30.00F
MONTICELLO     CLOUDY   N/A N/A N/A VRB3      29.98F
$$





USA.gov is the U.S. government's official web portal to all federal, state and local government web resources and services.